Kentucky Observed Data For Previous 48 Hours

Caption
Day and Hour Reservoir Elevation (behind dam)* Tailwater Elevation (below dam)* Average Hourly Discharge*
11/17/2018 1 AM CST 357.08 319.60 127,386
11/17/2018 2 AM CST 357.08 319.71 127,398
11/17/2018 3 AM CST 357.08 319.60 127,479
11/17/2018 4 AM CST 357.09 319.51 127,569
11/17/2018 5 AM CST 357.08 319.52 127,626
11/17/2018 6 AM CST 357.09 319.54 127,654
11/17/2018 7 AM CST 357.09 319.48 127,750
11/17/2018 8 AM CST 357.10 319.52 127,844
11/17/2018 9 AM CST 357.11 319.36 127,759
11/17/2018 10 AM CST 357.12 319.40 128,049
11/17/2018 11 AM CST 357.16 319.46 128,178
11/17/2018 12 PM CST 357.17 319.30 128,331
11/17/2018 1 PM CST 357.18 319.32 128,190
11/17/2018 2 PM CST 357.17 319.33 128,165
11/17/2018 3 PM CST 357.17 319.33 128,181
11/17/2018 4 PM CST 357.17 319.39 128,155
11/17/2018 5 PM CST 357.13 319.43 127,935
11/17/2018 6 PM CST 357.15 319.34 127,839
11/17/2018 7 PM CST 357.14 319.36 127,951
11/17/2018 8 PM CST 357.14 319.26 127,899
11/17/2018 9 PM CST 357.16 319.34 127,955
11/17/2018 10 PM CST 357.15 319.40 128,041
11/17/2018 11 PM CST 357.15 319.30 127,939
11/18/2018 12 AM CST 357.17 319.32 128,003
11/18/2018 1 AM CST 357.19 319.32 128,285
11/18/2018 2 AM CST 357.19 319.33 128,389
11/18/2018 3 AM CST 357.20 319.38 128,336
11/18/2018 4 AM CST 357.20 319.31 128,436
11/18/2018 5 AM CST 357.21 319.33 128,354
11/18/2018 6 AM CST 357.22 319.40 128,563
11/18/2018 7 AM CST 357.21 319.27 128,535
11/18/2018 8 AM CST 357.21 319.30 128,514
11/18/2018 9 AM CST 357.22 319.31 128,513
11/18/2018 10 AM CST 357.19 319.36 128,557
11/18/2018 11 AM CST 357.17 319.17 128,297
11/18/2018 12 PM CST 357.17 319.41 128,175
11/18/2018 1 PM CST 357.15 319.27 128,104
11/18/2018 2 PM CST 357.10 319.33 127,839
11/18/2018 3 PM CST 357.09 319.26 127,359
11/18/2018 4 PM CST 357.07 319.32 127,218
11/18/2018 5 PM CST 357.07 319.29 127,352
11/18/2018 6 PM CST 357.10 319.37 127,458
11/18/2018 7 PM CST 357.14 319.24 127,684
11/18/2018 8 PM CST 357.17 319.30 128,118
11/18/2018 9 PM CST 357.21 319.48 128,290
11/18/2018 10 PM CST 357.21 319.38 128,332
11/18/2018 11 PM CST 357.22 319.34 128,541
11/19/2018 12 AM CST 357.23 319.40 128,580
11/19/2018 1 AM CST 357.21 319.33 128,530
11/19/2018 2 AM CST 357.23 319.48 128,534
11/19/2018 3 AM CST 357.23 319.40 128,534
11/19/2018 4 AM CST 357.23 319.38 128,515
11/19/2018 5 AM CST 357.23 319.50 128,451
11/19/2018 6 AM CST 357.24 319.38 128,491
11/19/2018 7 AM CST 357.23 319.45 128,463
11/19/2018 8 AM CST 357.23 319.57 128,309
11/19/2018 9 AM CST 357.22 319.58 128,301
11/19/2018 10 AM CST 357.21 319.59 128,309
11/19/2018 11 AM CST 357.22 319.51 128,216
11/19/2018 12 PM CST 357.22 319.57 128,098

Elevations are in feet above sea level. Discharges are in cubic feet per second and are reported at the end of the hour.